This demonstration page uses our WeatherBlox Daily Observations layout. Learn more.

Left ArrowRight Arrow

39.08367, -84.50855

Hourly Observations for June 21, 2015

Temp ( °F °C ) Dew Point ( °F °C ) Humidity (%) Winds ( mph kmh ) Pressure ( in mb ) Visibility ( mi km ) Precip ( " mm )
1:53 am 01:53 Mostly Clear 70 21.1 69 20.6 97 97 SSW 7 11 29.91 1013 9 14 N/A
2:53 am 02:53 Clear 71 21.7 69 20.6 94 94 SSW 3 6 29.91 1013 10 16 N/A
3:53 am 03:53 Clear 70 21.1 68 20 93 93 SSW 5 7 29.92 1013 9 14 N/A
4:53 am 04:53 Partly Cloudy 72 22.2 68 20 87 87 W 6 9 29.92 1013 10 16 N/A
5:53 am 05:53 Clear 69 20.6 66 18.9 90 90 SSE 6 9 29.88 1012 10 16 0.01 0.25
6:53 am 06:53 Sunny 70 21.1 66 18.9 87 87 SSW 7 11 29.85 1011 10 16 N/A
7:53 am 07:53 Sunny 73 22.8 68 20 84 84 SSW 9 15 29.90 1013 10 16 N/A
8:53 am 08:53 Sunny 74 23.3 67 19.4 79 79 SSW 5 7 29.92 1013 10 16 N/A
9:53 am 09:53 Sunny 78 25.6 68 20 71 71 VRB 5 7 29.91 1013 10 16 N/A
10:53 am 10:53 Sunny 81 27.2 71 21.7 72 72 SW 8 13 29.93 1013 10 16 N/A
11:53 am 11:53 Sunny 84 28.9 68 20 59 59 SW 12 19 29.92 1013 10 16 N/A
12:53 pm 12:53 Sunny 85 29.4 67 19.4 55 55 W 13 20 29.94 1014 10 16 N/A
1:53 pm 13:53 Sunny 85 29.4 66 18.9 53 53 WSW 15 24 29.94 1014 10 16 N/A
2:53 pm 14:53 Sunny 86 30 66 18.9 51 51 WSW 10 17 29.94 1014 10 16 N/A
3:53 pm 15:53 Mostly Sunny 85 29.4 66 18.9 53 53 W 13 20 29.96 1014 10 16 N/A
4:53 pm 16:53 Mostly Sunny 85 29.4 68 20 57 57 W 13 20 29.96 1014 10 16 N/A
5:53 pm 17:53 Mostly Cloudy 84 28.9 67 19.4 57 57 W 15 24 29.96 1015 10 16 N/A
6:53 pm 18:53 Mostly Sunny 82 27.8 67 19.4 60 60 W 12 19 29.96 1015 10 16 N/A
7:53 pm 19:53 Partly Cloudy 80 26.7 67 19.4 64 64 W 9 15 29.99 1016 10 16 N/A
8:53 pm 20:53 Partly Cloudy 79 26.1 68 20 69 69 W 5 7 30.00 1016 10 16 N/A
9:53 pm 21:53 Clear 74 23.3 69 20.6 85 85 SW 7 11 29.99 1016 10 16 N/A
10:53 pm 22:53 Clear 74 23.3 70 21.1 88 88 N N/A 30.01 1016 10 16 N/A
11:53 pm 23:53 Clear 72 22.2 70 21.1 94 94 N N/A 30.03 1017 10 16 N/A

Powered by AerisWeather